sat.trackr.live / text

‹ back to catalog

ELARASAT MMS-1

NORAD 64539 · 2025-135M

PAYLOAD ACTIVE UNKNOWN

§ Identity

Operator
Country
AUS
Launch date
2025-06-23
Launch site
AFWTR
Launch vehicle
Mass (kg)
RCS (m²)

External: N2YO · Heavens-Above · Gunter

§ Orbital elements

Epoch: 2026-05-25T00:58:16.288320Z

Period
94.57 min
Inclination
97.4704°
Eccentricity
0.0001879
Mean motion
15.22671781 rev/d
Perigee alt
496.5 km
Apogee alt
499.1 km
Semi-major
6,875.9 km
B*
1.5480e-4
RAAN
260.6905°
Arg perigee
243.1601°
Mean anomaly
116.9443°
Rev number
5,135

§ Raw data

ELARASAT MMS-11 64539U 25135M   26145.04046630  .00003533  00000+0  15480-3 0  99982 64539  97.4704 260.6905 0001879 243.1601 116.9443 15.22671781 51352

JSON: /api/v1/satellites/64539 · /tle

For live sub-satellite position, see the globe view (requires WebGL).

§ Visibility from observer

Set your observer location to see the next 7 days of passes ≥ 10°. The values pass through the URL so the page stays shareable.

No JS? Fill the form by hand. The geolocation button needs JavaScript.